• In Hungary
  • List of Countries
  • For 7 days
  • Water Temperature
  • Satellite Maps
  • Weather Map
  • News
  • Weather Widgets
  • user-avatar
    Login

    Hourly Weather Sankt Ingbert

    Today, 20 January, Saturday

    Time Temperature Precipitation Wind Pressure Humidity
    00:00 0°C° 0 mm 4 mps 738 mmHg 89%
    01:00 0°C° 0.5 mm 4 mps 738 mmHg 89%
    02:00 0°C° 0.5 mm 5 mps 737 mmHg 89%
    03:00 +1°C° 0.5 mm 5 mps 737 mmHg 89%
    04:00 0°C° 0.1 mm 5 mps 737 mmHg 90%
    05:00 0°C° 0.1 mm 5 mps 736 mmHg 90%
    06:00 +1°C° 0 mm 3 mps 736 mmHg 91%
    07:00 +1°C° 0.2 mm 3 mps 736 mmHg 90%
    08:00 0°C° 0.2 mm 4 mps 735 mmHg 90%
    09:00 0°C° 0.2 mm 4 mps 735 mmHg 90%
    10:00 +1°C° 0.8 mm 4 mps 733 mmHg 90%
    11:00 +1°C° 0.8 mm 4 mps 732 mmHg 90%
    12:00 +1°C° 0.8 mm 4 mps 731 mmHg 90%
    13:00 +2°C° 1.7 mm 3 mps 730 mmHg 92%
    14:00 +2°C° 1.7 mm 3 mps 729 mmHg 93%
    15:00 +3°C° 1.7 mm 2 mps 727 mmHg 95%
    16:00 +3°C° 1.6 mm 2 mps 727 mmHg 96%
    17:00 +4°C° 1.6 mm 1 mps 727 mmHg 96%
    18:00 +4°C° 1.6 mm 1 mps 726 mmHg 97%
    19:00 +3°C° 0 mm 2 mps 727 mmHg 97%
    20:00 +2°C° 0 mm 2 mps 728 mmHg 96%
    21:00 +1°C° 0 mm 3 mps 729 mmHg 96%
    22:00 +1°C° 0.2 mm 3 mps 730 mmHg 96%
    23:00 +1°C° 0.2 mm 3 mps 730 mmHg 96%

    Tomorrow, 21 January, Sunday

    Time Temperature Precipitation Wind Pressure Humidity
    00:00 +2°C° 0.2 mm 3 mps 731 mmHg 95%
    01:00 +2°C° 0.1 mm 3 mps 731 mmHg 95%
    02:00 +2°C° 0.1 mm 3 mps 732 mmHg 95%
    03:00 +1°C° 0.1 mm 4 mps 733 mmHg 94%
    04:00 0°C° 0 mm 4 mps 734 mmHg 93%
    05:00 0°C° 0 mm 4 mps 735 mmHg 92%
    06:00 0°C° 0 mm 4 mps 736 mmHg 90%
    07:00 +1°C° 0 mm 3 mps 737 mmHg 89%
    08:00 +1°C° 0 mm 3 mps 738 mmHg 88%
    09:00 +1°C° 0 mm 3 mps 739 mmHg 86%
    10:00 +1°C° 0 mm 3 mps 740 mmHg 84%
    11:00 +2°C° 0 mm 3 mps 740 mmHg 82%
    12:00 +4°C° 0 mm 2 mps 741 mmHg 80%
    13:00 +4°C° 0 mm 2 mps 741 mmHg 82%
    14:00 +3°C° 0 mm 2 mps 741 mmHg 83%
    15:00 +3°C° 0 mm 2 mps 741 mmHg 84%
    16:00 +3°C° 0.2 mm 2 mps 741 mmHg 86%
    17:00 +3°C° 0.2 mm 2 mps 741 mmHg 87%
    18:00 +2°C° 0.2 mm 2 mps 740 mmHg 89%
    19:00 +2°C° 0.8 mm 2 mps 740 mmHg 89%
    20:00 +1°C° 0.8 mm 3 mps 739 mmHg 89%
    21:00 +1°C° 0.8 mm 3 mps 738 mmHg 90%
    22:00 +1°C° 1.3 mm 3 mps 737 mmHg 92%
    23:00 +2°C° 1.3 mm 3 mps 736 mmHg 94%

    Day after tomorrow, 22 January, Monday

    Time Temperature Precipitation Wind Pressure Humidity
    00:00 +2°C° 1.3 mm 3 mps 735 mmHg 96%
    01:00 +3°C° 1.2 mm 3 mps 735 mmHg 96%
    02:00 +4°C° 1.2 mm 3 mps 735 mmHg 97%
    03:00 +5°C° 1.2 mm 4 mps 734 mmHg 97%
    04:00 +6°C° 0.2 mm 4 mps 735 mmHg 97%
    05:00 +6°C° 0.2 mm 4 mps 735 mmHg 97%
    06:00 +7°C° 0.2 mm 5 mps 736 mmHg 97%
    07:00 +7°C° 0.1 mm 4 mps 736 mmHg 96%
    08:00 +7°C° 0.1 mm 4 mps 737 mmHg 95%
    09:00 +7°C° 0.1 mm 4 mps 737 mmHg 94%
    10:00 +8°C° 0.1 mm 4 mps 738 mmHg 92%
    11:00 +8°C° 0.1 mm 4 mps 738 mmHg 89%
    12:00 +8°C° 0.1 mm 4 mps 738 mmHg 87%
    13:00 +8°C° 0 mm 4 mps 738 mmHg 88%
    14:00 +8°C° 0 mm 3 mps 738 mmHg 89%
    15:00 +8°C° 0 mm 3 mps 738 mmHg 90%
    16:00 +7°C° 0.4 mm 2 mps 739 mmHg 92%
    17:00 +8°C° 0.4 mm 1 mps 739 mmHg 94%
    18:00 +7°C° 0.4 mm 1 mps 739 mmHg 96%
    19:00 +7°C° 0.8 mm 1 mps 740 mmHg 97%
    20:00 +6°C° 0.8 mm 0 mps 740 mmHg 97%
    21:00 +6°C° 0.8 mm 0 mps 740 mmHg 97%
    22:00 +5°C° 0.2 mm 0 mps 741 mmHg 97%
    23:00 +6°C° 0.2 mm 1 mps 741 mmHg 96%

    23 January, Tuesday

    Time Temperature Precipitation Wind Pressure Humidity
    00:00 +6°C° 0.2 mm 1 mps 741 mmHg 96%
    01:00 +5°C° 0 mm 1 mps 742 mmHg 96%
    02:00 +5°C° 0 mm 1 mps 743 mmHg 95%
    03:00 +4°C° 0 mm 1 mps 743 mmHg 95%
    04:00 +4°C° 0 mm 1 mps 744 mmHg 95%
    05:00 +4°C° 0 mm 1 mps 744 mmHg 95%
    06:00 +2°C° 0 mm 0 mps 745 mmHg 94%
    07:00 +3°C° 0 mm 0 mps 746 mmHg 93%
    08:00 +4°C° 0 mm 1 mps 746 mmHg 92%
    09:00 +5°C° 0 mm 1 mps 747 mmHg 91%
    10:00 +6°C° 0 mm 1 mps 747 mmHg 89%
    11:00 +6°C° 0 mm 2 mps 747 mmHg 87%
    12:00 +7°C° 0 mm 2 mps 747 mmHg 84%
    13:00 +7°C° 0 mm 2 mps 747 mmHg 86%
    14:00 +7°C° 0 mm 2 mps 747 mmHg 87%
    15:00 +7°C° 0 mm 2 mps 747 mmHg 89%
    16:00 +6°C° 0 mm 2 mps 747 mmHg 91%
    17:00 +5°C° 0 mm 2 mps 747 mmHg 93%
    18:00 +4°C° 0 mm 2 mps 747 mmHg 95%
    19:00 +4°C° 0 mm 2 mps 747 mmHg 94%
    20:00 +4°C° 0 mm 2 mps 747 mmHg 94%
    21:00 +4°C° 0 mm 2 mps 747 mmHg 94%
    22:00 +4°C° 0 mm 2 mps 747 mmHg 94%
    23:00 +4°C° 0 mm 2 mps 747 mmHg 93%

    24 January, Wednesday

    Time Temperature Precipitation Wind Pressure Humidity
    00:00 +4°C° 0 mm 2 mps 747 mmHg 93%
    01:00 +4°C° 0 mm 3 mps 747 mmHg 93%
    02:00 +4°C° 0 mm 3 mps 746 mmHg 93%
    03:00 +5°C° 0 mm 3 mps 746 mmHg 93%
    04:00 +5°C° 0 mm 3 mps 746 mmHg 93%
    05:00 +5°C° 0 mm 3 mps 746 mmHg 94%
    06:00 +6°C° 0 mm 4 mps 746 mmHg 94%
    07:00 +6°C° 0 mm 4 mps 746 mmHg 94%
    08:00 +6°C° 0 mm 4 mps 747 mmHg 93%
    09:00 +7°C° 0 mm 4 mps 747 mmHg 93%
    10:00 +7°C° 0 mm 4 mps 746 mmHg 91%
    11:00 +8°C° 0 mm 4 mps 746 mmHg 89%
    12:00 +9°C° 0 mm 5 mps 746 mmHg 86%
    13:00 +9°C° 0 mm 5 mps 746 mmHg 87%
    14:00 +10°C° 0 mm 4 mps 745 mmHg 87%
    15:00 +10°C° 0 mm 4 mps 745 mmHg 87%
    16:00 +8°C° 0 mm 4 mps 745 mmHg 89%
    17:00 +9°C° 0 mm 3 mps 745 mmHg 90%
    18:00 +8°C° 0 mm 3 mps 745 mmHg 92%
    19:00 +8°C° 0 mm 3 mps 744 mmHg 92%
    20:00 +8°C° 0 mm 3 mps 744 mmHg 91%
    21:00 +7°C° 0 mm 4 mps 744 mmHg 91%
    22:00 +6°C° 0 mm 4 mps 743 mmHg 90%
    23:00 +6°C° 0 mm 4 mps 743 mmHg 89%

    25 January, Thursday

    Time Temperature Precipitation Wind Pressure Humidity
    00:00 +6°C° 0 mm 4 mps 743 mmHg 89%
    01:00 +6°C° 0 mm 4 mps 742 mmHg 88%
    02:00 +6°C° 0 mm 4 mps 742 mmHg 88%
    03:00 +6°C° 0 mm 4 mps 742 mmHg 88%
    04:00 +6°C° 0 mm 4 mps 742 mmHg 89%
    05:00 +6°C° 0 mm 5 mps 741 mmHg 90%
    06:00 +6°C° 0 mm 5 mps 741 mmHg 90%
    07:00 +6°C° 0.1 mm 5 mps 741 mmHg 89%
    08:00 +7°C° 0.1 mm 5 mps 741 mmHg 87%
    09:00 +7°C° 0.1 mm 5 mps 741 mmHg 85%
    10:00 +7°C° 0.2 mm 5 mps 741 mmHg 85%
    11:00 +8°C° 0.2 mm 4 mps 741 mmHg 86%
    12:00 +8°C° 0.2 mm 4 mps 740 mmHg 86%
    13:00 +8°C° 0.7 mm 4 mps 740 mmHg 88%
    14:00 +7°C° 0.7 mm 4 mps 740 mmHg 89%
    15:00 +7°C° 0.7 mm 4 mps 739 mmHg 91%
    16:00 +8°C° 0.6 mm 3 mps 739 mmHg 92%
    17:00 +7°C° 0.6 mm 2 mps 739 mmHg 94%
    18:00 +7°C° 0.6 mm 2 mps 739 mmHg 95%
    19:00 +7°C° 0.6 mm 2 mps 739 mmHg 96%
    20:00 +7°C° 0.6 mm 1 mps 738 mmHg 96%
    21:00 +7°C° 0.6 mm 1 mps 738 mmHg 97%
    22:00 +7°C° 2.1 mm 1 mps 738 mmHg 96%
    23:00 +6°C° 2.1 mm 2 mps 738 mmHg 96%
    Show more